Location: Unspecified
(35.7250°N, 0.0000°E)
Time: 18:11:09
(UTC+00:00)

Vanguard 2 - Pass Details

Date: 20 June 2019
Orbit: 554 x 2937 km, 32.9° (Epoch: 18 October)

Event Time Altitude Azimuth Distance (km) Brightness Sun altitude
Rises 15:45:07 0° 275° (W) 5,479 12.8 40.5°
Reaches altitude 10° 15:49:15 10° 264° (W) 4,814 12.8 39.7°
Maximum altitude 16:00:04 26° 215° (SW) 4,269 12.0 37.5°
Drops below altitude 10° 16:13:02 10° 168° (SSE) 5,758 11.9 34.9°
Sets 16:18:46 0° 157° (SSE) 6,734 12.1 33.7°
